Powrót do katalogu

LUNAR TRAILBLAZER

LostNaukaHEO
NORAD 63101·PAYLOAD·🇺🇸 United States

Wystrzelony Feb 27, 2025 z Cape Canaveral Space Force Station

Loading…

Następne Przeloty (najbliższe 24 godziny)

TLE

NieaktualneSource: Space-Track

Epoka: Feb 27, 2025, 00:53 UTC

1 63101U 25038C   25058.03746186 -.00007054  00000-0  00000-0 0  9991
2 63101  28.5200 357.2438 9653600 216.4100   0.0142  0.10463308    07

Śledź LUNAR TRAILBLAZER w czasie rzeczywistym z AllMySat

Download on the App Store